Skip Page Navigation
NASA JPL Caltech
NASA Logo - Jet Propulsion Laboratory + View the NASA Portal
+ Center for Near-Earth Object Studies
JPL Home Earth Solar System Stars & Galaxies Technology
JPL Solar System Dynamics
BODIES ORBITS EPHEMERIDES TOOLS PHYSICAL DATA DISCOVERY FAQ SITE MAP
IMPORTANT: The SSD Announcement email list is now available. Major changes are coming in the near future, including possible hostname and/or URL changes. To be notified of such changes, subscribe to this email list.

Please visit this page for more details.


JPL Small-Body Database Browser
Search: [ help ]  
95096 (2002 AM105)
Classification: Main-belt Asteroid          SPK-ID: 2095096
Ephemeris | Orbit Diagram | Orbital Elements | Mission Design | Physical Parameters | Discovery Circumstances | Close-Approach Data ]

[ show orbit diagram ]
Orbital Elements at Epoch 2459000.5 (2020-May-31.0) TDB
Reference: JPL 20 (heliocentric ecliptic J2000)
 Element Value Uncertainty (1-sigma)   Units 
e .235213890897966 6.073e-08  
a 2.248116024213271 1.2056e-08 au
q 1.719327906968002 1.3576e-07 au
i 5.180437403577997 4.7997e-06 deg
node 302.4919821933447 5.5957e-05 deg
peri 50.45683357710132 5.6842e-05 deg
M 263.5843989294346 1.2064e-05 deg
tp 2459330.239762637573
(2021-Apr-25.73976264)
4.2707e-05 TDB
period 1231.194051911233
3.37
9.904e-06
2.712e-08
d
yr
n .292399073437008 2.3521e-09 deg/d
Q 2.776904141458541 1.4892e-08 au
  Orbit Determination Parameters
   # obs. used (total)      696  
   data-arc span      11515 days (31.53 yr)  
   first obs. used      1987-09-23  
   last obs. used      2019-04-03  
   planetary ephem.      DE431  
   SB-pert. ephem.      SB431-N16  
   condition code      0  
   norm. resid. RMS      .57856  
   source      ORB  
   producer      Otto Matic  
   solution date      2019-Jul-13 11:03:43  

Additional Information
 Earth MOID = .719277 au 
 Jupiter MOID = 2.67639 au 
 T_jup = 3.587 
[ show covariance matrix ]

Ephemeris | Orbit Diagram | Orbital Elements | Mission Design | Physical Parameters | Discovery Circumstances | Close-Approach Data ]

Physical Parameter Table
Parameter Symbol Value Units Sigma Reference Notes
absolute magnitude H 15.5   n/a MPO264023  
diameter diameter 2.263 km 0.204 urn:nasa:pds:neowise_diameters_albedos::2.0[mainbelt] (http://adsabs.harvard.edu/abs/2012ApJ...759L...8M)  
geometric albedo albedo 0.239   0.058 urn:nasa:pds:neowise_diameters_albedos::2.0[mainbelt] (http://adsabs.harvard.edu/abs/2012ApJ...759L...8M)  

95096 (2002 AM105)          Discovered 2002-Jan-09 by LINEAR at Socorro
Reference: 20041028/Numbers.arcLast Updated: 2004-10-29

[ show close-approach data ]
Alternate Designations
 2002 AM105 = 1987 SR14 = 2002 AM131 
Ephemeris | Orbit Diagram | Orbital Elements | Mission Design | Physical Parameters | Discovery Circumstances | Close-Approach Data ]
ABOUT SSD CREDITS/AWARDS PRIVACY/COPYRIGHT GLOSSARY LINKS
FirstGov 2020-Feb-20 08:29 UT
(server date/time)  
NASA Home Page
Site Manager:   Ryan S. Park
Webmaster  Alan B. Chamberlin